Regional Weather Roundup
Issued by NWS Little Rock, AR

Home | Current Version | Previous Version | Text Only | Print | Product List | Glossary On
Versions: 1 2 3 4 5 6 7 8 9 10 11 12 13 14 15 16 17 18 19 20 21 22 23 24 25 26 27 28 29 30 31 32
000
ASUS44 KLZK 220105
RWRLZK

WEATHER ROUNDUP FOR ARKANSAS
NATIONAL WEATHER SERVICE LITTLE ROCK AR
700 PM CST WED FEB 21 2018

NOTE: "FAIR" INDICATES FEW OR NO CLOUDS BELOW 12,000 FEET WITH NO
SIGNIFICANT WEATHER AND/OR OBSTRUCTIONS TO VISIBILITY.

ARZ001-003-010-029-220200-
NORTHWEST ARKANSAS

CITY           SKY/WX    TMP DP  RH WIND       PRES   REMARKS
FAYETTEVILLE   CLOUDY    31  31 100 VRB6      30.38F WCI  25
FORT SMITH     LGT RAIN  38  36  92 CALM      30.39S
HARRISON       MIX PCPN  31  31 100 VRB5      30.40S WCI  26
BENTONVILLE    FLURRIES  31  30  96 E8        30.39F WCI  23
ROGERS         FLURRIES  30  30 100 E8        30.38F WCI  23
SILOAM SPGS    CLOUDY    31  30  96 E7        30.37F WCI  24
HIGHFILL       CLOUDY    32  31  96 E8        30.37F WCI  25
SPRINGDALE     CLOUDY    30  32 100 NE6       30.40F WCI  24
$$

ARZ004-005-016-220200-
NORTH CENTRAL ARKANSAS

CITY           SKY/WX    TMP DP  RH WIND       PRES   REMARKS
BATESVILLE     LGT RAIN  38  36  92 N8        30.37S FOG
FLIPPIN        LGT SNOW  32  31  96 N9        30.44R FOG     WCI  24
MTN HOME       FRZ RAIN  31  31 100 N6        30.41S FOG     WCI  25
$$

ARZ040-041-220200-
WEST CENTRAL ARKANSAS

CITY           SKY/WX    TMP DP  RH WIND       PRES   REMARKS
MENA           CLOUDY    41  41 100 CALM      30.30F
MOUNT IDA      RAIN      43  43 100 CALM      30.29S FOG
$$

ARZ009-017-025-026-028-220200-
NORTHEAST ARKANSAS

CITY           SKY/WX    TMP DP  RH WIND       PRES   REMARKS
JONESBORO      RAIN      39  38  96 NE17      30.36R
NEWPORT        RAIN      38  37  97 N18       30.36R
BLYTHEVILLE    LGT RAIN  44  32  62 E14       30.33F
$$

ARZ022-023-033-042-044-220200-
CENTRAL ARKANSAS

CITY           SKY/WX    TMP DP  RH WIND       PRES   REMARKS
LITTLE ROCK    RAIN      43  43 100 N13       30.27R FOG
N LITTLE ROCK    N/A     42  41  99 N8        30.26R
JACKSONVILLE   LGT RAIN  43  43  99 N6        30.28S
SEARCY         RAIN      42  42 100 N15       30.31S
HOT SPRINGS    HVY RAIN  45  45 100 NW14G23   30.31R FOG
RUSSELLVILLE   RAIN      38  37  97 N13       30.38R FOG
CLINTON        LGT RAIN  37  34  87 NW10G16   30.36R
$$

ARZ036-220200-
EAST ARKANSAS

CITY           SKY/WX    TMP DP  RH WIND       PRES   REMARKS
WEST MEMPHIS   LGT RAIN  47  32  56 NE13      30.24F
$$

ARZ050-053-066-070-073-220200-
SOUTHWEST ARKANSAS

CITY           SKY/WX    TMP DP  RH WIND       PRES   REMARKS
ARKADELPHIA    RAIN      49  48  97 NW16      30.28R FOG
CAMDEN         RAIN      54  50  87 E5G13     30.17R
TEXARKANA      LGT RAIN  50  49  96 N15G23    30.27R
EL DORADO      RAIN      54  54 100 E9        30.16R
DE QUEEN       CLOUDY    48  46  93 NE9       30.25S
$$

ARZ056-057-069-220200-
SOUTHEAST ARKANSAS

CITY           SKY/WX    TMP DP  RH WIND       PRES   REMARKS
PINE BLUFF     RAIN      50  50 100 E21G26    30.18F
STUTTGART      RAIN      48  47  96 NE17      30.24F
MONTICELLO     HVY RAIN  53  51  93 E15G26    30.22F FOG

$$






USA.gov is the U.S. government's official web portal to all federal, state and local government web resources and services.